Bedford, Massachusetts, United States (01730)
Lat: 42.49N, Lon: 71.28W
Wx Zone: MAZ005
Local Info
Past Weather Observations for Friday, April 18, 2014

NOTE: This archive is for the closest National Weather Service station to Bedford. Information may differ from the station used for current weather conditions.

Time Weather Temperature Dewpoint Humidity Pressure Winds Precip Visibility
23:56
Partly Cloudy
36°F / 2°C 34°F / 1°C 93% 30.21 in
(1023 mb)
Calm - 10SM
22:56
Partly Cloudy
37°F / 3°C 34°F / 1°C 87% 30.24 in
(1024 mb)
Calm - 10SM
21:56
Clear
37°F / 3°C 34°F / 1°C 87% 30.27 in
(1025 mb)
SSE 3.5 mph
(SSE 6 kph)
- 10SM
20:56
Clear
37°F / 3°C 34°F / 1°C 87% 30.27 in
(1025 mb)
SE 4.6 mph
(SE 7 kph)
- 10SM
19:56
Clear
37°F / 3°C 32°F / 0°C 81% 30.3 in
(1026 mb)
SE 3.5 mph
(SE 6 kph)
- 10SM
18:56
Clear
37°F / 3°C 32°F / 0°C 81% 30.27 in
(1025 mb)
E 8.1 mph
(E 13 kph)
- 10SM
17:56
Clear
39°F / 4°C 30°F / -1°C 70% 30.3 in
(1026 mb)
ESE 10.4 mph
(ESE 17 kph)
- 10SM
16:56
Clear
43°F / 6°C 30°F / -1°C 61% 30.33 in
(1027 mb)
SE 6.9 mph
(SE 11 kph)
- 10SM
15:56
Clear
43°F / 6°C 30°F / -1°C 61% 30.36 in
(1028 mb)
E 6.9 mph
(E 11 kph)
- 10SM
14:56
Clear
43°F / 6°C 30°F / -1°C 61% 30.39 in
(1029 mb)
SE 6.9 mph
(SE 11 kph)
- 10SM
13:56
Partly Cloudy
45°F / 7°C 30°F / -1°C 57% 30.42 in
(1030 mb)
SSE 8.1 mph
(SSE 13 kph)
- 10SM
12:56
Clear
46°F / 8°C 28°F / -2°C 50% 30.45 in
(1031 mb)
E 8.1 mph
(E 13 kph)
- 10SM
11:56
Partly Cloudy
45°F / 7°C 28°F / -2°C 53% 30.45 in
(1031 mb)
Variable 6.9 mph
(Variable 11 kph)
- 10SM
11:03
Mostly Cloudy
45°F / 7°C 28°F / -2°C 53% 30.48 in
(1032 mb)
SE 9.2 mph
(SE 15 kph)
- 10SM
10:56
Mostly Cloudy
45°F / 7°C 28°F / -2°C 53% 30.51 in
(1033 mb)
ESE 10.4 mph
(ESE 17 kph)
- 10SM
10:06
Mostly Cloudy
41°F / 5°C 28°F / -2°C 61% 30.54 in
(1034 mb)
E 10.4 mph
(E 17 kph)
- 10SM
09:56
Mostly Cloudy
41°F / 5°C 28°F / -2°C 61% 30.54 in
(1034 mb)
ENE 11.5 mph
(ENE 19 kph)
- 10SM
08:56
Overcast
39°F / 4°C 28°F / -2°C 65% 30.57 in
(1035 mb)
NE 3.5 mph
(NE 6 kph)
- 10SM
07:56
Overcast
36°F / 2°C 28°F / -2°C 75% 30.54 in
(1034 mb)
NNE 6.9 mph
(NNE 11 kph)
- 10SM
06:56
Overcast
34°F / 1°C 28°F / -2°C 81% 30.54 in
(1034 mb)
NE 6.9 mph
(NE 11 kph)
- 10SM
06:42
Partly Cloudy
32°F / 0°C 28°F / -2°C 87% 30.57 in
(1035 mb)
Variable 3.5 mph
(Variable 6 kph)
- 10SM
06:35
Mostly Cloudy
30°F / -1°C 27°F / -3°C 86% 30.57 in
(1035 mb)
N 4.6 mph
(N 7 kph)
- 10SM
05:56
Clear
28°F / -2°C 27°F / -3°C 93% 30.54 in
(1034 mb)
NE 3.5 mph
(NE 6 kph)
- 10SM
05:29
Partly Cloudy
27°F / -3°C 25°F / -4°C 93% 30.54 in
(1034 mb)
NE 4.6 mph
(NE 7 kph)
- 10SM
04:56
Mostly Cloudy
27°F / -3°C 25°F / -4°C 93% 30.57 in
(1035 mb)
NE 3.5 mph
(NE 6 kph)
- 10SM
03:56
Overcast
27°F / -3°C 25°F / -4°C 93% 30.63 in
(1037 mb)
Calm - 10SM
03:44
Mostly Cloudy
27°F / -3°C 25°F / -4°C 93% 30.63 in
(1037 mb)
Calm - 10SM
02:56
Clear
27°F / -3°C 25°F / -4°C 93% 30.63 in
(1037 mb)
Calm - 10SM
01:56
Clear
27°F / -3°C 25°F / -4°C 93% 30.63 in
(1037 mb)
Calm - 10SM
00:56
Clear
27°F / -3°C 25°F / -4°C 93% 30.63 in
(1037 mb)
Calm - 10SM
Time Weather Temperature Dewpoint Humidity Pressure Winds Precip Visibility


Weather for websites

WeatherForYou.com, LLC is not responsible for any damages or problems caused by this service. Current weather conditions are obtained from the closest station including government and personal stations which may have varying degrees of accuracy. Weather forecasts are derived from the NOAA NDFD. Like all things, this site belongs to Jesus Christ... He just trusts me to maintain it. If you have any questions or comments email webmaster@weatherforyou.com

Copyright © 2014, WeatherForYou.com LLC. All rights reserved.